Flag for Andorra Weather past 2 weeks in Andorra La Vella, Andorra

Now
70 °F

Clear.


Feels Like: 70 °F
Forecast: 55 / 71 °F
Wind: No wind

Location: Carcassonne Airport

Current Time: Jul 25, 2014 at 1:39:45 AM

Latest Report: Jul 25, 2014 at 1:00 AM


Visibility: N/A

Pressure: 29.89 "Hg

Humidity: 83%

Dew point: 64 °F

Location of Andorra La VellaLocation

Historic Weather in Andorra La Vella — Graph

°F

Andorra La Vella temperature yesterday

Maximum temperature yesterday: 88 °F (at 5:00 PM)
Minimum temperature yesterday: 66 °F (at 3:30 AM)
Average temperature yesterday: 76 °F

Past Weeks' High & Low Weather Summary

 TemperatureHumidityPressure
High93 °F (Jul 16, 6:00 PM)100% (Jul 14, 7:30 AM)30.12 "Hg (Jul 14, 7:30 AM)
Low57 °F (Jul 15, 5:30 AM)27% (Jul 17, 4:30 PM)29.80 "Hg (Jul 19, 4:30 PM)
Average71 °F70%30.02 "Hg
* Reported Midnight between Jul 9 and Jul 10 — Jul 25 12:30 AM, Andorra La Vella, Weather by CustomWeather, © 2014

Note: Actual official high and low records may vary slightly from our data, if they occured in-between our weather recording intervals... More about our weather records

Advertising

Andorra La Vella weather history for previous 24 hours

 ConditionsComfort  
Time TempWeatherWind HumidityBarometerVisibility
12:30 AM
Jul 25
72 °FClear.3 mph78%29.89 "HgN/A
12:00 AM73 °FClear.2 mph74%29.89 "HgN/A
11:30 PM
Jul 24
73 °FClear.3 mph74%29.89 "HgN/A
11:00 PM73 °FMild.3 mph74%29.89 "HgN/A
10:30 PM73 °FMild.2 mph74%29.89 "HgN/A
10:00 PM75 °FHaze.3 mph69%29.89 "Hg2 mi
9:30 PM77 °FClear.2 mph61%29.86 "HgN/A
9:00 PM81 °FClear.2 mph58%29.86 "HgN/A
8:30 PM84 °FClear.2 mph51%29.86 "HgN/A
8:00 PM84 °FClear.6 mph48%29.86 "HgN/A
7:30 PM82 °FClear.6 mph51%29.86 "HgN/A
7:00 PM86 °FClear.7 mph46%29.83 "HgN/A
6:30 PM86 °FClear.7 mph46%29.83 "HgN/A
6:00 PM86 °FPassing clouds.9 mph46%29.86 "HgN/A
5:30 PM86 °FClear.10 mph46%29.86 "HgN/A
5:00 PM88 °FClear.9 mph46%29.86 "HgN/A
4:30 PM86 °FClear.9 mph43%29.86 "HgN/A
4:00 PM86 °FClear.9 mph49%29.86 "HgN/A
3:30 PM86 °FPassing clouds.9 mph49%29.86 "HgN/A
3:00 PM84 °FClear.12 mph55%29.89 "HgN/A
2:30 PM84 °FPassing clouds.12 mph55%29.89 "HgN/A
2:00 PM84 °FPassing clouds.12 mph55%29.89 "HgN/A
1:30 PM82 °FPassing clouds.13 mph62%29.89 "HgN/A
1:00 PM82 °FClear.13 mph62%29.89 "HgN/A
12:30 PM81 °FClear.14 mph66%29.89 "HgN/A
12:00 PM81 °FPassing clouds.13 mph66%29.89 "HgN/A
11:30 AM79 °FClear.12 mph70%29.89 "HgN/A
11:00 AM79 °FClear.10 mph70%29.89 "HgN/A
10:30 AM77 °FClear.13 mph69%29.89 "HgN/A
10:00 AM75 °FClear.12 mph74%29.89 "HgN/A
9:30 AM73 °FClear.10 mph74%29.89 "HgN/A
9:00 AM72 °FClear.9 mph73%29.89 "HgN/A
8:30 AM72 °FClear.10 mph73%29.89 "HgN/A
8:00 AM70 °FClear.7 mph78%29.89 "HgN/A
7:30 AM68 °FClear.1 mph83%29.89 "HgN/A
7:00 AM66 °FClear.3 mph83%29.86 "HgN/A
6:30 AM66 °FClear.3 mph83%29.86 "HgN/A
6:00 AM68 °FClear.3 mph83%29.86 "HgN/A
5:30 AM68 °FClear.5 mph83%29.86 "HgN/A
5:00 AM68 °FClear.5 mph78%29.86 "HgN/A
4:30 AM66 °FClear.3 mph83%29.86 "HgN/A
4:00 AM68 °FClear.2 mph78%29.86 "HgN/A
3:30 AM66 °FClear.3 mph83%29.86 "HgN/A
3:00 AM68 °FClear.2 mph78%29.86 "HgN/A
2:30 AM68 °FClear.2 mph78%29.89 "HgN/A
2:00 AM70 °FClear.3 mph73%29.89 "HgN/A
1:30 AM70 °FClear.5 mph78%29.89 "HgN/A
1:00 AM70 °FClear.3 mph78%29.89 "HgN/A
Weather by CustomWeather, © 2014

See weather overviewHow to use our weather pages